| time (UTC) | temp C | wind direction | speed KPH | gust KPH | rain 1hr cm | rain 24hr cm | rain mn cm | humidity % | barometer mb |
| 20260904040028 | 20 | 229 | 0.0 | 4.8 | 0.00 | 0.00 | 0.00 | 42 | 1017.3 |
| 20260904034520 | 20 | 219 | 0.0 | 0.0 | 0.00 | 0.00 | 0.00 | 43 | 1017.2 |
| 20260904033018 | 20 | 219 | 0.0 | 1.6 | 0.00 | 0.00 | 0.00 | 41 | 1017.3 |
| 20260904031516 | 21 | 219 | 0.0 | 0.0 | 0.00 | 0.00 | 0.00 | 37 | 1017.5 |
| 20260904030016 | 20 | 232 | 1.6 | 1.6 | 0.00 | 0.00 | 0.00 | 39 | 1017.4 |
| 20260904024515 | 20 | 212 | 0.0 | 0.0 | 0.00 | 0.00 | 0.00 | 45 | 1017.4 |
| 20260904023011 | 21 | 213 | 0.0 | 0.0 | 0.00 | 0.00 | 0.00 | 41 | 1017.2 |
| 20260904021510 | 21 | 146 | 0.0 | 0.0 | 0.00 | 0.00 | 0.00 | 39 | 1017.3 |
| 20260904020006 | 21 | 146 | 0.0 | 0.0 | 0.00 | 0.00 | 0.00 | 42 | 1017.5 |
| 20260904014505 | 21 | 146 | 0.0 | 0.0 | 0.00 | 0.00 | 0.00 | 42 | 1017.6 |
| 20260904013006 | 21 | 146 | 0.0 | 0.0 | 0.00 | 0.00 | 0.00 | 42 | 1017.8 |
| 20260904011501 | 21 | 147 | 0.0 | 0.0 | 0.00 | 0.00 | 0.00 | 42 | 1017.8 |
| 20260904010115 | 21 | 147 | 0.0 | 0.0 | 0.00 | 0.00 | 0.00 | 39 | 1018.0 |
| 20260904004557 | 22 | 115 | 0.0 | 1.6 | 0.00 | 0.00 | 0.00 | 37 | 1018.1 |
| 20260904003054 | 22 | 114 | 0.0 | 0.0 | 0.00 | 0.00 | 0.00 | 40 | 1018.2 |
| 20260904001552 | 23 | 227 | 0.0 | 0.0 | 0.00 | 0.00 | 0.00 | 38 | 1018.0 |
| 20260904000055 | 23 | 227 | 0.0 | 1.6 | 0.00 | 0.00 | 0.00 | 39 | 1018.1 |
| 20260903234547 | 23 | 227 | 0.0 | 0.0 | 0.00 | 0.00 | 0.00 | 36 | 1018.1 |
| 20260903233046 | 23 | 217 | 0.0 | 0.0 | 0.00 | 0.00 | 0.00 | 35 | 1017.9 |
| 20260903231543 | 24 | 221 | 0.0 | 3.2 | 0.00 | 0.00 | 0.00 | 35 | 1017.9 |
| 20260903230041 | 23 | 219 | 0.0 | 0.0 | 0.00 | 0.00 | 0.00 | 39 | 1017.8 |
| 20260903224539 | 23 | 217 | 0.0 | 0.0 | 0.00 | 0.00 | 0.00 | 37 | 1017.7 |
| 20260903223039 | 24 | 217 | 0.0 | 1.6 | 0.00 | 0.00 | 0.00 | 37 | 1017.6 |
| 20260903221535 | 24 | 222 | 0.0 | 0.0 | 0.00 | 0.00 | 0.00 | 35 | 1017.6 |
| 20260903220031 | 25 | 223 | 0.0 | 1.6 | 0.00 | 0.00 | 0.00 | 32 | 1017.8 |
| 20260903214530 | 26 | 223 | 0.0 | 1.6 | 0.00 | 0.00 | 0.00 | 30 | 1017.6 |
| 20260903213029 | 26 | 231 | 0.0 | 1.6 | 0.00 | 0.00 | 0.00 | 31 | 1017.6 |
| 20260903211530 | 26 | 250 | 0.0 | 3.2 | 0.00 | 0.00 | 0.00 | 29 | 1017.6 |
| 20260903210029 | 27 | 172 | 0.0 | 0.0 | 0.00 | 0.00 | 0.00 | 28 | 1017.5 |
| 20260903204531 | 28 | 151 | 0.0 | 0.0 | 0.00 | 0.00 | 0.00 | 27 | 1017.4 |
| 20260903203127 | 28 | 152 | 0.0 | 0.0 | 0.00 | 0.00 | 0.00 | 27 | 1017.3 |
| 20260903201526 | 29 | 231 | 0.0 | 3.2 | 0.00 | 0.00 | 0.00 | 26 | 1017.1 |
| 20260903200026 | 30 | 98 | 0.0 | 1.6 | 0.00 | 0.00 | 0.00 | 24 | 1016.9 |
| 20260903194525 | 30 | 82 | 0.0 | 0.0 | 0.00 | 0.00 | 0.00 | 23 | 1016.8 |
| 20260903193024 | 31 | 73 | 0.0 | 1.6 | 0.00 | 0.00 | 0.00 | 23 | 1016.6 |
| 20260903191524 | 31 | 87 | 0.0 | 4.8 | 0.00 | 0.00 | 0.00 | 22 | 1016.5 |
| 20260903190023 | 32 | 89 | 1.6 | 3.2 | 0.00 | 0.00 | 0.00 | 20 | 1016.2 |
| 20260903184522 | 33 | 21 | 0.0 | 8.0 | 0.00 | 0.00 | 0.00 | 20 | 1016.1 |
| 20260903183022 | 34 | 321 | 3.2 | 9.7 | 0.00 | 0.00 | 0.00 | 19 | 1016.0 |
| 20260903181521 | 35 | 357 | 1.6 | 12.9 | 0.00 | 0.00 | 0.00 | 19 | 1015.9 |
| 20260903180030 | 36 | 331 | 3.2 | 17.7 | 0.00 | 0.00 | 0.00 | 18 | 1015.9 |
| 20260903174521 | 36 | 100 | 1.6 | 8.0 | 0.00 | 0.00 | 0.00 | 20 | 1015.5 |
| 20260903173018 | 36 | 153 | 1.6 | 9.7 | 0.00 | 0.00 | 0.00 | 20 | 1015.6 |
| 20260903171518 | 37 | 244 | 1.6 | 11.3 | 0.00 | 0.00 | 0.00 | 20 | 1015.7 |
| 20260903170020 | 37 | 336 | 1.6 | 8.0 | 0.00 | 0.00 | 0.00 | 19 | 1015.8 |
| 20260903164515 | 37 | 95 | 4.8 | 16.1 | 0.00 | 0.00 | 0.00 | 19 | 1015.7 |
| 20260903163013 | 37 | 112 | 4.8 | 12.9 | 0.00 | 0.00 | 0.00 | 18 | 1015.7 |
| 20260903161513 | 37 | 250 | 4.8 | 9.7 | 0.00 | 0.00 | 0.00 | 19 | 1015.6 |
| 20260903160032 | 37 | 253 | 4.8 | 16.1 | 0.00 | 0.00 | 0.00 | 18 | 1015.7 |
| 20260903154517 | 37 | 288 | 4.8 | 14.5 | 0.00 | 0.00 | 0.00 | 18 | 1015.7 |
| 20260903153010 | 37 | 286 | 3.2 | 16.1 | 0.00 | 0.00 | 0.00 | 18 | 1015.8 |
| 20260903151508 | 37 | 231 | 1.6 | 12.9 | 0.00 | 0.00 | 0.00 | 19 | 1015.8 |
| 20260903150018 | 37 | 253 | 3.2 | 14.5 | 0.00 | 0.00 | 0.00 | 19 | 1016.0 |
| 20260903144510 | 37 | 296 | 8.0 | 14.5 | 0.00 | 0.00 | 0.00 | 18 | 1016.3 |
| 20260903143011 | 37 | 257 | 3.2 | 12.9 | 0.00 | 0.00 | 0.00 | 19 | 1016.3 |
| 20260903141501 | 36 | 283 | 3.2 | 12.9 | 0.00 | 0.00 | 0.00 | 20 | 1016.4 |
| 20260903140110 | 36 | 281 | 3.2 | 16.1 | 0.00 | 0.00 | 0.00 | 20 | 1016.5 |
| 20260903134559 | 36 | 290 | 4.8 | 22.5 | 0.00 | 0.00 | 0.00 | 21 | 1016.9 |
| 20260903133101 | 36 | 307 | 6.4 | 14.5 | 0.00 | 0.00 | 0.00 | 20 | 1016.9 |
| 20260903131553 | 36 | 242 | 6.4 | 19.3 | 0.00 | 0.00 | 0.00 | 21 | 1017.1 |
| 20260903130051 | 35 | 271 | 6.4 | 14.5 | 0.00 | 0.00 | 0.00 | 21 | 1017.2 |
| 20260903124553 | 35 | 146 | 3.2 | 19.3 | 0.00 | 0.00 | 0.00 | 22 | 1017.3 |
| 20260903123048 | 35 | 314 | 4.8 | 17.7 | 0.00 | 0.00 | 0.00 | 22 | 1017.4 |
| 20260903121548 | 35 | 289 | 6.4 | 17.7 | 0.00 | 0.00 | 0.00 | 24 | 1017.5 |
| 20260903120059 | 34 | 199 | 4.8 | 14.5 | 0.00 | 0.00 | 0.00 | 23 | 1017.7 |
| 20260903114543 | 34 | 152 | 3.2 | 9.7 | 0.00 | 0.00 | 0.00 | 23 | 1017.8 |
| 20260903113041 | 33 | 214 | 1.6 | 11.3 | 0.00 | 0.00 | 0.00 | 26 | 1018.1 |
| 20260903111539 | 33 | 306 | 0.0 | 8.0 | 0.00 | 0.00 | 0.00 | 29 | 1018.2 |
| 20260903110034 | 32 | 237 | 0.0 | 11.3 | 0.00 | 0.00 | 0.00 | 31 | 1018.3 |
| 20260903104531 | 31 | 109 | 1.6 | 8.0 | 0.00 | 0.00 | 0.00 | 35 | 1018.6 |
| 20260903103028 | 30 | 117 | 3.2 | 8.0 | 0.00 | 0.00 | 0.00 | 37 | 1018.7 |
| 20260903101531 | 29 | 237 | 1.6 | 9.7 | 0.00 | 0.00 | 0.00 | 39 | 1018.9 |
| 20260903100022 | 28 | 113 | 1.6 | 9.7 | 0.00 | 0.00 | 0.00 | 40 | 1019.0 |
| 20260903094520 | 28 | 74 | 6.4 | 9.7 | 0.00 | 0.00 | 0.00 | 41 | 1019.0 |
| 20260903093021 | 28 | 143 | 0.0 | 8.0 | 0.00 | 0.00 | 0.00 | 42 | 1019.1 |
| 20260903091517 | 28 | 151 | 1.6 | 6.4 | 0.00 | 0.00 | 0.00 | 42 | 1019.2 |
| 20260903090026 | 27 | 104 | 0.0 | 4.8 | 0.00 | 0.00 | 0.00 | 43 | 1019.2 |
| 20260903084512 | 26 | 151 | 1.6 | 8.0 | 0.00 | 0.00 | 0.00 | 43 | 1019.1 |
| 20260903083009 | 26 | 79 | 3.2 | 8.0 | 0.00 | 0.00 | 0.00 | 45 | 1019.0 |
| 20260903081507 | 25 | 103 | 1.6 | 8.0 | 0.00 | 0.00 | 0.00 | 43 | 1019.1 |
| 20260903080005 | 25 | 116 | 3.2 | 6.4 | 0.00 | 0.00 | 0.00 | 41 | 1019.0 |
| 20260903074504 | 24 | 121 | 1.6 | 4.8 | 0.00 | 0.00 | 0.00 | 40 | 1019.0 |
| 20260903073003 | 23 | 118 | 1.6 | 4.8 | 0.00 | 0.00 | 0.00 | 40 | 1018.9 |
| 20260903071503 | 23 | 119 | 0.0 | 4.8 | 0.00 | 0.00 | 0.00 | 41 | 1018.8 |
| 20260903070105 | 22 | 102 | 0.0 | 1.6 | 0.00 | 0.00 | 0.00 | 40 | 1018.7 |
| 20260903064558 | 22 | 109 | 0.0 | 3.2 | 0.00 | 0.00 | 0.00 | 41 | 1018.5 |
| 20260903063100 | -17 | 0.0 | 0.0 | 0.00 | 0.00 | 0.00 | 1018.5 | ||
| 20260903061612 | -17 | 0.0 | 0.0 | 0.00 | 0.00 | 0.00 | 1018.3 | ||
| 20260903060046 | -17 | 0.0 | 0.0 | 0.00 | 0.00 | 0.00 | 1018.2 | ||
| 20260903054541 | -17 | 0.0 | 0.0 | 0.00 | 0.00 | 0.00 | 1018.1 | ||
| 20260903053038 | -17 | 0.0 | 0.0 | 0.00 | 0.00 | 0.00 | 1018.0 | ||
| 20260903051534 | -17 | 0.0 | 0.0 | 0.00 | 0.00 | 0.00 | 1018.1 | ||
| 20260903050032 | -17 | 134 | 0.0 | 1.6 | 0.00 | 0.00 | 0.00 | 1018.1 | |
| 20260903044527 | 20 | 248 | 0.0 | 3.2 | 0.00 | 0.00 | 0.00 | 42 | 1018.0 |
| 20260903043025 | 20 | 147 | 0.0 | 1.6 | 0.00 | 0.00 | 0.00 | 42 | 1017.9 |
| 20260903041531 | 20 | 89 | 0.0 | 1.6 | 0.00 | 0.00 | 0.00 | 41 | 1017.7 |